Hourly Weather Plotnikovo

Today, 4 July, Saturday

Time Temperature Precipitation Wind Pressure Humidity
00:00 +19°C° 0.9 mm 1 mps 740 mmHg 96%
01:00 +18°C° 0.9 mm 1 mps 740 mmHg 97%
02:00 +18°C° 0 mm 1 mps 740 mmHg 97%
03:00 +18°C° 3.1 mm 1 mps 740 mmHg 98%
04:00 +18°C° 3.1 mm 1 mps 740 mmHg 98%
05:00 +17°C° 3.1 mm 2 mps 740 mmHg 99%
06:00 +18°C° 1 mm 1 mps 740 mmHg 98%
07:00 +19°C° 1 mm 1 mps 740 mmHg 98%
08:00 +19°C° 1 mm 1 mps 740 mmHg 97%
09:00 +21°C° 0.2 mm 1 mps 740 mmHg 90%
10:00 +22°C° 0.2 mm 1 mps 740 mmHg 82%
11:00 +24°C° 0.2 mm 1 mps 740 mmHg 75%
12:00 +25°C° 0 mm 1 mps 740 mmHg 68%
13:00 +25°C° 0 mm 1 mps 740 mmHg 61%
14:00 +26°C° 0 mm 1 mps 740 mmHg 55%
15:00 +26°C° 0 mm 1 mps 740 mmHg 58%
16:00 +26°C° 0 mm 1 mps 740 mmHg 61%
17:00 +26°C° 0 mm 1 mps 740 mmHg 64%
18:00 +24°C° 0 mm 1 mps 740 mmHg 69%
19:00 +22°C° 0 mm 1 mps 740 mmHg 74%
20:00 +21°C° 0 mm 1 mps 740 mmHg 79%
21:00 +20°C° 0 mm 1 mps 740 mmHg 81%
22:00 +19°C° 0 mm 1 mps 740 mmHg 83%
23:00 +18°C° 0 mm 1 mps 740 mmHg 85%

Tomorrow, 5 July, Sunday

Time Temperature Precipitation Wind Pressure Humidity
00:00 +16°C° 0 mm 1 mps 740 mmHg 86%
01:00 +16°C° 0 mm 1 mps 740 mmHg 87%
02:00 +15°C° 0 mm 1 mps 741 mmHg 88%
03:00 +16°C° 0 mm 1 mps 740 mmHg 87%
04:00 +16°C° 0 mm 1 mps 740 mmHg 86%
05:00 +16°C° 0 mm 0 mps 740 mmHg 84%
06:00 +20°C° 0 mm 1 mps 740 mmHg 78%
07:00 +21°C° 0 mm 1 mps 740 mmHg 71%
08:00 +23°C° 0 mm 2 mps 740 mmHg 64%
09:00 +24°C° 0 mm 2 mps 740 mmHg 62%
10:00 +25°C° 0 mm 2 mps 740 mmHg 60%
11:00 +26°C° 0 mm 3 mps 740 mmHg 58%
12:00 +26°C° 0 mm 3 mps 739 mmHg 57%
13:00 +26°C° 0 mm 3 mps 739 mmHg 56%
14:00 +27°C° 0 mm 3 mps 739 mmHg 56%
15:00 +27°C° 0 mm 3 mps 739 mmHg 58%
16:00 +26°C° 0 mm 3 mps 738 mmHg 60%
17:00 +26°C° 0 mm 3 mps 738 mmHg 62%
18:00 +24°C° 0 mm 2 mps 738 mmHg 68%
19:00 +23°C° 0 mm 2 mps 738 mmHg 74%
20:00 +20°C° 0 mm 2 mps 738 mmHg 80%
21:00 +19°C° 0 mm 2 mps 738 mmHg 83%
22:00 +18°C° 0 mm 2 mps 738 mmHg 86%
23:00 +18°C° 0 mm 2 mps 738 mmHg 89%

Day after tomorrow, 6 July, Monday

Time Temperature Precipitation Wind Pressure Humidity
00:00 +17°C° 0 mm 2 mps 738 mmHg 91%
01:00 +17°C° 0 mm 2 mps 738 mmHg 93%
02:00 +17°C° 0 mm 3 mps 738 mmHg 94%
03:00 +17°C° 0 mm 3 mps 738 mmHg 93%
04:00 +18°C° 0 mm 3 mps 737 mmHg 92%
05:00 +18°C° 0 mm 3 mps 737 mmHg 90%
06:00 +20°C° 0 mm 3 mps 738 mmHg 85%
07:00 +21°C° 0 mm 3 mps 738 mmHg 79%
08:00 +23°C° 0 mm 4 mps 738 mmHg 74%
09:00 +25°C° 0 mm 4 mps 738 mmHg 70%
10:00 +26°C° 0 mm 4 mps 738 mmHg 67%
11:00 +27°C° 0 mm 4 mps 737 mmHg 63%
12:00 +27°C° 0.1 mm 5 mps 737 mmHg 65%
13:00 +27°C° 0.1 mm 5 mps 737 mmHg 67%
14:00 +27°C° 0.1 mm 5 mps 737 mmHg 69%
15:00 +26°C° 0.3 mm 4 mps 737 mmHg 74%
16:00 +25°C° 0.3 mm 3 mps 737 mmHg 80%
17:00 +24°C° 0.3 mm 3 mps 737 mmHg 85%
18:00 +23°C° 0.2 mm 2 mps 737 mmHg 88%
19:00 +23°C° 0.2 mm 2 mps 737 mmHg 90%
20:00 +21°C° 0.2 mm 2 mps 737 mmHg 92%
21:00 +20°C° 0 mm 2 mps 737 mmHg 93%
22:00 +20°C° 0 mm 2 mps 737 mmHg 94%
23:00 +20°C° 0 mm 2 mps 737 mmHg 94%

7 July, Tuesday

Time Temperature Precipitation Wind Pressure Humidity
00:00 +19°C° 0 mm 2 mps 737 mmHg 95%
01:00 +19°C° 0 mm 2 mps 736 mmHg 96%
02:00 +19°C° 0 mm 2 mps 736 mmHg 97%
03:00 +19°C° 0.1 mm 2 mps 736 mmHg 97%
04:00 +19°C° 0.1 mm 2 mps 736 mmHg 96%
05:00 +19°C° 0.1 mm 2 mps 736 mmHg 96%
06:00 +20°C° 0.6 mm 2 mps 736 mmHg 94%
07:00 +23°C° 0.6 mm 2 mps 736 mmHg 91%
08:00 +24°C° 0.6 mm 3 mps 736 mmHg 88%
09:00 +24°C° 0.8 mm 3 mps 736 mmHg 86%
10:00 +25°C° 0.8 mm 3 mps 736 mmHg 84%
11:00 +25°C° 0.8 mm 3 mps 736 mmHg 82%
12:00 +25°C° 1.1 mm 3 mps 736 mmHg 83%
13:00 +25°C° 1.1 mm 3 mps 736 mmHg 83%
14:00 +24°C° 1.1 mm 3 mps 736 mmHg 83%
15:00 +24°C° 0.4 mm 3 mps 736 mmHg 83%
16:00 +24°C° 0.4 mm 3 mps 737 mmHg 82%
17:00 +23°C° 0.4 mm 2 mps 737 mmHg 81%
18:00 +21°C° 0 mm 2 mps 737 mmHg 85%
19:00 +20°C° 0 mm 2 mps 737 mmHg 88%
20:00 +19°C° 0 mm 2 mps 737 mmHg 92%
21:00 +18°C° 0 mm 2 mps 737 mmHg 93%
22:00 +17°C° 0 mm 2 mps 737 mmHg 94%
23:00 +16°C° 0 mm 2 mps 736 mmHg 95%

8 July, Wednesday

Time Temperature Precipitation Wind Pressure Humidity
00:00 +16°C° 0.2 mm 2 mps 736 mmHg 94%
01:00 +16°C° 0.2 mm 3 mps 736 mmHg 93%
02:00 +16°C° 0.2 mm 3 mps 736 mmHg 93%
03:00 +16°C° 0.4 mm 3 mps 735 mmHg 93%
04:00 +16°C° 0.4 mm 3 mps 735 mmHg 94%
05:00 +16°C° 0.4 mm 3 mps 735 mmHg 94%
06:00 +17°C° 0.5 mm 3 mps 734 mmHg 95%
07:00 +17°C° 0.5 mm 3 mps 734 mmHg 96%
08:00 +17°C° 0.5 mm 3 mps 734 mmHg 97%
09:00 +17°C° 0.2 mm 3 mps 733 mmHg 96%
10:00 +17°C° 0.2 mm 3 mps 733 mmHg 96%
11:00 +17°C° 0.2 mm 3 mps 733 mmHg 95%
12:00 +17°C° 0.3 mm 3 mps 733 mmHg 94%
13:00 +18°C° 0.3 mm 3 mps 733 mmHg 93%
14:00 +18°C° 0.3 mm 2 mps 733 mmHg 93%
15:00 +17°C° 0.8 mm 3 mps 734 mmHg 94%
16:00 +15°C° 0.8 mm 4 mps 734 mmHg 94%
17:00 +13°C° 0.8 mm 5 mps 734 mmHg 95%
18:00 +13°C° 0.2 mm 4 mps 734 mmHg 96%
19:00 +13°C° 0.2 mm 4 mps 735 mmHg 96%
20:00 +12°C° 0.2 mm 4 mps 735 mmHg 96%
21:00 +12°C° 0 mm 3 mps 735 mmHg 96%
22:00 +12°C° 0 mm 3 mps 735 mmHg 96%
23:00 +12°C° 0 mm 3 mps 735 mmHg 96%

9 July, Thursday

Time Temperature Precipitation Wind Pressure Humidity
00:00 +12°C° 0.1 mm 3 mps 735 mmHg 96%
01:00 +12°C° 0.1 mm 3 mps 735 mmHg 96%
02:00 +12°C° 0.1 mm 3 mps 735 mmHg 95%
03:00 +12°C° 0.1 mm 3 mps 735 mmHg 95%
04:00 +11°C° 0.1 mm 3 mps 735 mmHg 95%
05:00 +11°C° 0.1 mm 3 mps 735 mmHg 95%
06:00 +13°C° 0 mm 3 mps 736 mmHg 89%
07:00 +14°C° 0 mm 3 mps 736 mmHg 83%
08:00 +17°C° 0 mm 3 mps 736 mmHg 77%
09:00 +18°C° 0.1 mm 4 mps 736 mmHg 71%
10:00 +19°C° 0.1 mm 4 mps 737 mmHg 66%
11:00 +20°C° 0.1 mm 4 mps 737 mmHg 60%
12:00 +20°C° 0.2 mm 4 mps 737 mmHg 59%
13:00 +21°C° 0.2 mm 4 mps 737 mmHg 58%
14:00 +21°C° 0.2 mm 4 mps 737 mmHg 57%
15:00 +21°C° 0 mm 4 mps 737 mmHg 57%
16:00 +21°C° 0 mm 4 mps 737 mmHg 57%
17:00 +21°C° 0 mm 4 mps 737 mmHg 57%
18:00 +19°C° 0 mm 3 mps 737 mmHg 64%
19:00 +17°C° 0 mm 3 mps 737 mmHg 70%
20:00 +15°C° 0 mm 2 mps 737 mmHg 77%
21:00 +14°C° 0 mm 2 mps 738 mmHg 81%
22:00 +13°C° 0 mm 2 mps 738 mmHg 84%
23:00 +12°C° 0 mm 2 mps 738 mmHg 88%
Show more